Wind_Speed
23 23 23 23 24 25 27 28 28 28 29 30 31 30 29 30 31 31 30 30 30 29 29 30 31 32 33 33 34 35 35 36 37 36 37 38 37 37 37 38 38 37 37 36
23 23 23 24 24 25 26 27 28 29 29 31 31 31 30 30 31 31 31 30 30 29 30 30 30 32 32 34 34 35 36 36 37 38 38 38 38 38 38 39 38 38 39 38
24 23 24 24 25 25 27 27 28 29 30 31 31 31 31 31 31 32 31 31 31 31 31 31 31 33 34 35 35 35 36 36 37 38 38 38 39 40 40 40 40 39 39 38
24 24 25 25 25 25 26 26 27 28 29 30 31 32 30 30 31 32 32 32 32 32 32 33 33 33 34 35 35 35 36 37 37 37 39 40 40 39 39 39 40 41 40 40
24 24 24 24 25 25 25 26 27 28 29 30 30 32 30 30 30 31 31 32 32 33 33 33 33 34 34 35 35 34 36 38 38 38 38 39 40 40 40 40 41 41 40 40
23 23 24 24 24 25 26 26 26 27 28 29 29 31 30 29 29 29 30 31 31 32 33 33 34 34 35 35 36 35 35 37 38 39 39 40 40 41 41 40 41 41 40 40
22 22 23 23 24 24 25 25 26 26 27 28 28 29 29 27 28 28 29 29 30 31 32 33 34 34 35 36 37 37 37 38 39 40 40 41 41 41 42 41 41 42 43 42
22 22 22 22 22 23 24 24 25 26 26 26 26 28 27 26 27 28 28 29 30 31 32 33 34 34 35 36 37 38 38 39 40 40 40 41 42 42 42 42 43 43 44 44
22 22 22 22 22 22 23 23 24 25 25 26 27 27 27 26 27 28 29 30 30 30 31 32 34 35 36 36 37 37 38 39 39 40 41 41 41 42 42 43 44 44 44 45
22 23 22 22 22 22 22 22 23 24 25 26 26 25 25 25 26 27 28 28 29 30 30 32 33 34 35 36 37 38 38 39 39 40 41 41 41 42 43 44 44 45 44 45
23 23 22 22 21 20 20 21 22 23 25 25 25 24 25 25 25 26 26 26 27 29 30 31 32 32 33 35 36 37 38 39 40 41 41 42 43 43 43 43 44 45 45 46
22 23 22 21 21 21 21 21 22 23 24 25 26 25 24 25 25 26 27 27 27 28 29 30 31 32 33 34 35 37 39 40 40 41 42 42 44 45 45 44 44 45 46 47
21 22 22 22 23 23 23 23 24 24 25 25 26 25 24 24 24 25 26 27 27 28 29 30 31 32 33 34 36 37 39 40 41 41 43 43 44 45 45 45 45 45 46 47
22 22 22 23 24 24 24 24 24 25 26 26 26 25 24 24 24 25 26 26 27 28 29 30 31 32 34 34 35 36 37 39 40 41 42 43 44 44 45 46 46 46 47 47
23 23 23 23 24 25 25 25 25 25 25 26 24 25 24 24 25 25 26 26 27 27 28 29 30 31 33 33 34 35 36 37 39 40 41 42 43 44 45 46 46 47 47 48
23 24 23 23 24 25 25 24 24 24 24 24 24 24 23 24 25 26 26 26 26 27 27 28 29 30 31 32 33 35 36 37 38 39 40 41 43 44 45 46 47 47 48 48
25 25 24 24 24 25 25 24 24 24 24 24 23 22 22 23 25 26 27 27 27 27 28 29 30 31 32 32 33 33 34 36 37 38 39 40 41 43 44 45 46 46 47 47
24 25 25 25 25 25 24 23 23 24 23 23 23 23 22 23 24 25 26 27 28 29 29 30 30 31 32 32 33 33 34 35 36 36 37 38 39 41 42 43 44 44 44 44
23 23 24 25 26 25 23 22 22 23 22 22 23 23 23 24 24 25 26 27 28 28 29 29 30 30 31 32 33 34 34 35 35 36 36 37 37 38 39 40 40 41 42 43
22 22 23 23 24 24 21 21 21 21 21 21 22 22 23 24 25 25 26 27 28 28 29 29 29 29 30 30 32 33 34 34 35 35 35 36 36 37 37 38 39 39 40 41
21 21 22 23 23 22 20 21 21 21 20 20 20 21 22 23 24 24 25 26 27 27 28 28 29 28 29 30 31 32 32 33 34 35 35 35 35 36 36 36 37 37 38 39
20 21 21 21 22 20 19 20 21 21 20 20 21 21 22 23 23 23 24 24 25 26 27 27 27 28 28 29 30 31 31 32 33 34 34 34 35 36 36 35 36 36 37 37
20 21 21 21 20 20 20 20 20 19 20 20 21 21 22 22 22 23 23 23 24 25 26 26 27 27 28 29 29 30 31 31 31 31 33 34 34 34 34 34 34 35 35 36
20 21 21 20 19 19 19 20 19 20 20 21 21 22 22 23 23 23 23 23 24 25 26 26 27 27 28 29 30 31 31 31 31 31 32 32 33 33 33 33 33 33 34 34
21 21 20 19 19 19 19 19 20 20 20 20 21 22 22 23 23 22 23 23 24 25 26 26 27 27 28 29 29 30 31 31 32 32 32 32 32 32 32 32 33 33 34 34
19 20 19 19 19 19 18 20 20 20 20 20 21 22 23 23 23 23 23 23 24 25 25 26 27 27 28 28 28 29 30 30 30 30 31 32 32 32 32 32 33 33 33 33
Wind_Direction
261 260 259 259 259 258 257 257 257 257 259 258 258 258 255 253 253 253 253 253 253 253 253 253 250 248 247 245 243 244 244 245 246 245 245 246 248 249 250 252 253 254 255 258
262 261 260 260 259 259 259 258 259 259 260 260 258 257 254 253 252 253 254 254 253 252 252 252 251 251 249 247 245 246 247 247 246 246 247 248 248 249 251 253 255 256 257 259
261 260 259 258 260 261 260 260 260 261 262 261 260 257 254 253 252 253 254 255 255 253 252 253 252 251 251 250 249 248 248 248 247 247 248 249 249 250 252 254 255 258 259 260
261 261 260 259 260 262 262 261 261 262 263 262 261 260 255 254 253 253 254 255 256 255 254 253 252 251 251 251 251 251 249 248 248 248 249 250 252 253 254 256 257 258 259 260
262 261 260 260 260 262 263 263 262 262 264 264 262 263 258 255 254 253 254 254 255 255 254 253 252 251 251 252 252 253 253 251 252 251 251 252 254 254 256 257 258 258 260 261
264 262 261 261 261 262 263 263 263 263 264 265 263 264 261 257 256 255 254 255 255 255 253 253 252 252 252 252 252 252 254 254 253 253 253 254 255 255 257 258 258 258 260 263
263 262 260 260 261 262 263 264 266 265 264 265 265 264 262 260 258 255 255 255 255 255 254 254 253 252 253 252 252 252 253 254 254 254 255 255 256 256 257 258 258 259 261 263
263 263 261 260 261 262 263 264 266 268 268 266 265 265 264 263 261 258 257 256 256 256 256 254 254 253 254 253 253 253 254 254 255 255 256 256 257 257 258 258 259 261 262 263
264 263 262 259 260 261 263 265 267 269 269 270 268 267 265 264 262 261 259 258 256 255 255 255 255 255 255 255 255 255 255 254 255 255 256 257 257 257 258 259 260 262 263 263
264 263 261 260 261 263 265 267 268 270 271 272 271 269 266 264 264 264 263 261 258 257 256 256 257 257 257 256 256 256 256 256 256 257 257 257 257 258 259 260 260 261 263 264
265 264 263 261 261 265 267 267 267 268 270 273 275 272 270 270 269 267 265 264 262 260 260 259 259 258 257 257 256 256 257 258 258 257 258 258 258 259 261 261 262 262 263 264
267 264 263 263 263 264 267 270 271 270 271 272 274 275 274 274 272 270 268 266 265 264 263 262 262 261 259 259 258 257 258 259 258 258 259 259 260 260 261 262 263 264 264 264
267 266 265 265 266 266 268 270 271 271 271 272 274 276 276 277 274 271 271 270 268 267 265 264 264 263 262 261 260 259 259 260 260 260 260 261 261 262 262 263 263 264 265 265
266 267 268 269 270 270 270 269 269 269 270 272 274 275 274 274 272 271 271 271 269 269 268 267 267 265 263 263 262 261 261 261 261 261 262 262 262 263 264 264 264 264 265 265
267 268 270 272 272 271 271 270 268 268 269 271 273 272 273 273 271 270 270 271 271 271 270 269 268 268 266 265 263 263 263 262 262 263 263 264 264 264 264 265 265 265 265 265
266 267 269 272 273 271 270 270 270 269 270 272 274 273 272 272 270 270 270 271 271 272 273 273 271 270 269 267 266 265 264 264 264 264 265 265 265 265 265 266 266 266 266 266
265 266 269 271 271 270 271 273 273 272 273 273 274 275 273 272 272 272 272 273 273 274 274 274 273 271 270 269 267 267 266 265 265 266 266 266 266 266 267 267 268 267 267 266
268 268 270 270 270 270 275 273 272 271 271 271 272 274 275 275 274 274 274 275 275 276 275 273 273 273 272 271 269 268 268 267 267 267 267 268 268 269 268 268 268 268 267 267
269 269 270 270 271 273 273 274 272 271 271 273 274 275 276 278 277 277 277 277 277 277 277 276 275 275 274 273 271 268 268 269 269 269 269 269 270 270 270 269 269 269 269 268
271 270 271 272 272 273 275 273 273 272 272 274 276 277 279 281 281 281 282 281 280 279 278 278 278 277 276 275 274 270 269 270 271 271 270 271 271 271 271 271 271 271 271 270
271 271 272 273 273 274 276 275 274 274 275 277 278 280 284 286 286 286 285 283 281 280 280 280 280 280 279 278 276 273 272 272 272 272 271 271 272 272 273 273 274 273 272 271
270 271 273 273 274 275 273 272 273 275 276 279 281 283 286 288 289 288 287 285 284 283 283 283 284 284 283 281 279 275 274 275 274 274 273 272 272 273 274 274 275 275 274 272
271 272 272 273 275 271 269 270 274 276 277 281 283 287 290 292 292 292 290 288 288 286 286 286 286 285 285 283 282 279 278 278 278 277 275 274 274 273 273 274 275 276 275 274
271 271 271 271 272 269 269 271 272 275 279 283 286 288 291 294 295 294 292 291 291 289 288 287 287 286 286 285 284 282 280 278 278 277 278 277 276 275 276 277 277 277 276 275
272 272 272 270 269 268 270 271 270 273 278 282 286 289 291 294 296 296 296 296 294 291 291 291 290 290 288 287 286 285 282 280 279 278 278 276 276 277 277 277 278 278 277 276
272 273 274 272 269 269 268 270 271 274 279 285 289 290 291 294 295 296 296 297 296 294 294 294 293 292 290 289 288 287 284 283 281 280 278 277 277 277 276 277 278 279 279 277
Height
5708 5710 5710 5710 5711 5711 5711 5711 5712 5713 5713 5714 5715 5716 5718 5718 5719 5720 5722 5723 5724 5725 5727 5727 5729 5730 5732 5733 5736 5739 5741 5743 5745 5748 5751 5754 5756 5757 5759 5760 5762 5763 5764 5765
5703 5703 5704 5703 5703 5703 5703 5704 5705 5706 5706 5706 5707 5708 5710 5710 5711 5713 5714 5715 5717 5717 5718 5720 5721 5723 5725 5726 5728 5731 5733 5735 5738 5740 5742 5745 5747 5749 5751 5752 5753 5754 5755 5756
5696 5697 5696 5697 5697 5696 5697 5697 5698 5698 5698 5698 5698 5700 5702 5703 5704 5705 5706 5707 5709 5710 5711 5712 5714 5716 5717 5719 5721 5723 5725 5727 5729 5731 5733 5735 5737 5739 5742 5743 5745 5745 5747 5748
5689 5689 5689 5690 5690 5690 5690 5690 5690 5690 5690 5690 5691 5691 5695 5695 5696 5697 5698 5699 5701 5702 5703 5704 5706 5707 5709 5710 5712 5714 5716 5718 5720 5723 5725 5726 5728 5730 5732 5734 5735 5737 5737 5738
5682 5682 5683 5683 5683 5683 5683 5683 5682 5682 5681 5682 5683 5682 5686 5687 5688 5689 5690 5691 5692 5693 5694 5696 5697 5699 5701 5702 5704 5705 5707 5709 5712 5714 5716 5717 5719 5721 5723 5724 5726 5727 5728 5729
5676 5675 5676 5676 5676 5676 5676 5676 5675 5674 5674 5674 5676 5675 5676 5678 5680 5681 5681 5682 5683 5685 5686 5687 5689 5690 5692 5694 5695 5697 5699 5700 5702 5704 5706 5708 5710 5712 5714 5715 5716 5718 5719 5719
5669 5669 5669 5669 5669 5669 5669 5669 5668 5667 5666 5667 5668 5667 5669 5670 5671 5672 5673 5674 5675 5676 5677 5679 5680 5682 5683 5685 5686 5688 5690 5691 5693 5695 5697 5699 5701 5702 5704 5706 5707 5708 5709 5710
5662 5663 5663 5662 5662 5662 5662 5662 5662 5660 5659 5660 5659 5659 5662 5662 5663 5663 5664 5665 5666 5667 5668 5669 5671 5673 5674 5676 5677 5679 5681 5682 5684 5685 5687 5689 5691 5693 5694 5695 5697 5698 5698 5699
5655 5656 5656 5656 5655 5656 5655 5654 5654 5653 5652 5651 5651 5652 5654 5655 5654 5655 5655 5656 5657 5658 5659 5660 5662 5664 5665 5666 5668 5669 5671 5672 5674 5675 5677 5679 5680 5682 5683 5685 5686 5687 5687 5688
5648 5649 5649 5649 5649 5648 5648 5648 5647 5646 5644 5643 5644 5645 5646 5646 5646 5646 5646 5647 5648 5649 5650 5651 5652 5654 5655 5657 5658 5659 5661 5662 5664 5665 5667 5668 5670 5671 5672 5673 5675 5675 5676 5676
5641 5642 5642 5642 5642 5642 5642 5642 5640 5639 5638 5637 5636 5640 5639 5639 5638 5638 5638 5639 5639 5640 5641 5642 5643 5644 5645 5646 5648 5649 5650 5652 5653 5655 5656 5657 5658 5659 5660 5661 5662 5663 5664 5664
5634 5634 5634 5635 5635 5635 5634 5634 5634 5633 5632 5630 5629 5634 5632 5631 5630 5630 5630 5630 5631 5631 5632 5632 5633 5634 5635 5636 5637 5638 5640 5641 5642 5643 5645 5646 5647 5648 5648 5649 5649 5650 5651 5651
5627 5627 5628 5628 5630 5629 5628 5627 5627 5626 5625 5623 5622 5627 5625 5624 5622 5622 5622 5622 5622 5622 5623 5623 5623 5624 5625 5626 5626 5627 5629 5630 5631 5631 5632 5633 5634 5635 5635 5636 5636 5637 5637 5638
5620 5620 5622 5622 5621 5621 5620 5620 5619 5618 5617 5616 5616 5617 5618 5616 5615 5615 5614 5614 5613 5614 5614 5614 5614 5614 5614 5615 5615 5616 5617 5618 5619 5620 5620 5621 5622 5622 5622 5623 5623 5623 5624 5624
5613 5614 5613 5614 5613 5613 5612 5612 5611 5610 5610 5609 5610 5609 5610 5608 5607 5607 5606 5606 5605 5605 5605 5605 5604 5604 5604 5605 5605 5605 5606 5606 5607 5608 5608 5609 5609 5609 5609 5609 5609 5609 5609 5610
5606 5606 5606 5606 5606 5604 5604 5604 5604 5603 5602 5602 5601 5602 5602 5600 5599 5599 5598 5598 5597 5596 5596 5595 5595 5595 5595 5595 5595 5595 5595 5595 5595 5595 5596 5596 5596 5596 5596 5596 5596 5595 5595 5595
5599 5599 5599 5599 5598 5596 5596 5598 5597 5596 5595 5595 5594 5595 5594 5593 5591 5591 5590 5589 5588 5588 5587 5586 5585 5585 5585 5584 5584 5584 5584 5584 5584 5584 5584 5584 5583 5583 5583 5582 5582 5582 5581 5581
5591 5591 5590 5590 5590 5589 5593 5590 5589 5588 5588 5587 5587 5587 5586 5585 5584 5583 5582 5581 5580 5579 5578 5577 5576 5575 5574 5574 5573 5573 5573 5572 5572 5572 5572 5571 5571 5570 5570 5569 5568 5568 5567 5567
5584 5584 5583 5582 5581 5581 5584 5583 5582 5581 5581 5581 5579 5579 5578 5577 5576 5574 5573 5572 5571 5570 5568 5567 5566 5565 5564 5563 5562 5562 5562 5561 5561 5560 5560 5559 5558 5557 5557 5556 5555 5555 5554 5554
5577 5576 5577 5575 5574 5574 5578 5576 5575 5575 5574 5574 5572 5572 5571 5569 5568 5567 5565 5563 5561 5560 5559 5558 5556 5555 5554 5553 5551 5551 5551 5550 5549 5549 5548 5547 5546 5545 5544 5543 5543 5542 5542 5541
5570 5569 5569 5568 5566 5567 5569 5568 5567 5568 5569 5567 5566 5565 5563 5561 5560 5559 5556 5554 5552 5551 5550 5549 5547 5546 5544 5542 5541 5540 5540 5539 5538 5537 5536 5535 5534 5534 5533 5532 5531 5530 5529 5529
5563 5563 5562 5561 5560 5563 5562 5561 5561 5561 5561 5560 5558 5557 5556 5554 5552 5550 5548 5546 5544 5543 5541 5539 5538 5536 5535 5533 5531 5530 5529 5528 5527 5526 5525 5524 5523 5522 5521 5520 5519 5518 5517 5516
5556 5557 5556 5556 5557 5556 5554 5553 5553 5553 5553 5552 5551 5550 5548 5546 5545 5542 5540 5538 5536 5535 5533 5531 5529 5527 5525 5523 5521 5520 5519 5517 5516 5515 5514 5513 5512 5510 5509 5509 5508 5506 5505 5504
5550 5549 5549 5549 5549 5548 5547 5547 5547 5546 5546 5545 5544 5542 5541 5539 5537 5535 5532 5530 5528 5527 5525 5523 5521 5519 5516 5514 5512 5510 5508 5507 5505 5504 5503 5502 5501 5500 5498 5497 5496 5495 5494 5493
5543 5542 5542 5542 5542 5542 5541 5541 5540 5540 5539 5538 5537 5535 5533 5531 5529 5527 5525 5523 5521 5519 5517 5514 5512 5510 5507 5505 5502 5500 5498 5497 5495 5494 5493 5492 5490 5489 5488 5487 5486 5485 5484 5482
5536 5536 5536 5536 5536 5535 5535 5534 5533 5533 5532 5531 5530 5528 5526 5524 5522 5520 5518 5516 5513 5511 5509 5506 5503 5500 5498 5495 5493 5490 5488 5486 5485 5484 5482 5481 5480 5479 5478 5477 5475 5473 5473 5471